AP989 Weather Reports


time (UTC)temp
C
wind
direction
speed
KPH
gust
KPH
rain 1hr
cm
rain 24hr
cm
rain mn
cm
humidity
%
barometer
mb
20260510214003 8 333 16.1 29.0 0.00 0.00 0.00 49 1020.0
20260510213004 7 313 8.0 29.0 0.00 0.00 0.00 48 1020.0
20260510212004 8 293 14.5 25.7 0.00 0.00 0.00 49 1020.0
20260510211004 8 358 9.7 25.7 0.00 0.00 0.00 49 1020.0
20260510210003 8 4 16.1 25.7 0.00 0.00 0.00 51 1019.5
20260510205004 8 358 11.3 25.7 0.00 0.00 0.00 50 1019.5
20260510204004 8 334 19.3 27.4 0.00 0.00 0.00 50 1019.5
20260510202003 8 15 9.7 29.0 0.00 0.00 0.00 48 1019.5
20260510201003 8 346 9.7 27.4 0.00 0.00 0.00 47 1019.5
20260510200004 7 335 16.1 29.0 0.00 0.00 0.00 49 1019.5
20260510195003 8 4 12.9 32.2 0.00 0.00 0.00 49 1019.5
20260510194003 8 294 19.3 32.2 0.00 0.00 0.00 46 1019.5
20260510193004 8 342 11.3 20.9 0.00 0.00 0.00 48 1019.5
20260510192004 7 333 14.5 32.2 0.00 0.00 0.00 49 1019.5
20260510191004 8 320 14.5 27.4 0.00 0.00 0.00 48 1019.5
20260510190003 8 346 9.7 29.0 0.00 0.00 0.00 49 1019.5
20260510184003 8 1 11.3 24.1 0.00 0.00 0.00 51 1018.6
20260510183003 8 312 9.7 20.9 0.00 0.00 0.00 53 1018.6
20260510182004 8 272 14.5 27.4 0.00 0.00 0.00 52 1018.6
20260510181004 7 337 11.3 24.1 0.00 0.00 0.00 50 1018.6
20260510180004 7 332 16.1 32.2 0.00 0.00 0.00 49 1018.6
20260510175003 7 331 19.3 32.2 0.00 0.00 0.00 51 1018.6
20260510174003 7 285 12.9 32.2 0.00 0.00 0.00 51 1018.6
20260510173004 8 275 9.7 32.2 0.00 0.00 0.00 53 1018.6
20260510172003 7 300 11.3 35.4 0.00 0.00 0.00 53 1018.6
20260510171004 7 286 16.1 27.4 0.00 0.00 0.00 53 1018.6
20260510170004 8 297 16.1 25.7 0.00 0.00 0.00 51 1018.6
20260510165003 7 323 16.1 32.2 0.00 0.00 0.00 53 1017.3
20260510164003 7 285 9.7 25.7 0.00 0.00 0.00 53 1017.3
20260510163004 7 290 11.3 33.8 0.00 0.00 0.00 53 1017.3
20260510161003 7 263 19.3 25.7 0.00 0.00 0.00 52 1017.3
20260510160003 7 4 12.9 22.5 0.00 0.00 0.00 51 1017.3
20260510155003 7 249 11.3 32.2 0.00 0.00 0.00 55 1017.3
20260510154003 6 254 9.7 32.2 0.00 0.00 0.00 55 1017.3
20260510152004 6 279 17.7 29.0 0.00 0.00 0.00 57 1017.3
20260510151004 6 292 14.5 32.2 0.00 0.00 0.00 55 1017.3
20260510145003 6 286 16.1 35.4 0.00 0.00 0.00 55 1017.3
20260510144003 6 259 20.9 32.2 0.00 0.00 0.00 55 1016.9
20260510143004 6 296 14.5 32.2 0.00 0.00 0.00 57 1016.9
20260510142004 5 313 12.9 32.2 0.00 0.00 0.00 59 1016.9
20260510140003 5 305 16.1 25.7 0.00 0.00 0.00 59 1016.9
20260510135004 5 275 22.5 32.2 0.00 0.00 0.00 64 1016.9
20260510134003 5 287 14.5 27.4 0.00 0.00 0.00 66 1016.9
20260510133004 5 302 11.3 22.5 0.00 0.00 0.00 69 1016.9
20260510132004 5 261 8.0 22.5 0.00 0.00 0.00 70 1015.3
20260510131004 4 280 17.7 25.7 0.00 0.00 0.00 71 1015.3
20260510130003 4 274 9.7 24.1 0.00 0.00 0.00 72 1015.3
20260510125003 4 264 12.9 25.7 0.00 0.00 0.00 72 1015.3
20260510124004 3 290 19.3 29.0 0.00 0.00 0.00 72 1015.3
20260510122004 3 291 12.9 32.2 0.00 0.00 0.00 74 1015.3
20260510121004 3 273 16.1 25.7 0.00 0.00 0.00 74 1015.3
20260510120004 3 280 9.7 25.7 0.00 0.00 0.00 74 1015.3
20260510115004 3 273 14.5 32.2 0.00 0.00 0.00 75 1015.3
20260510114004 3 279 12.9 25.7 0.00 0.00 0.00 75 1015.3
20260510113003 3 266 12.9 20.9 0.00 0.00 0.00 75 1015.3
20260510112003 3 261 14.5 20.9 0.00 0.00 0.00 74 1015.3
20260510111004 3 281 11.3 19.3 0.00 0.00 0.00 74 1015.3
20260510110003 2 272 14.5 19.3 0.00 0.00 0.00 73 1015.0
20260510105004 2 262 11.3 19.3 0.00 0.00 0.00 74 1015.0
20260510104004 2 274 11.3 19.3 0.00 0.00 0.00 74 1015.0
20260510103003 2 274 11.3 19.3 0.00 0.00 0.00 74 1014.0
20260510102003 2 273 11.3 19.3 0.00 0.00 0.00 75 1014.0
20260510101004 2 263 9.7 16.1 0.00 0.00 0.00 76 1014.0
20260510100004 1 265 11.3 19.3 0.00 0.00 0.00 78 1014.0
20260510095004 1 264 11.3 19.3 0.00 0.00 0.00 77 1014.0
20260510094004 1 266 12.9 16.1 0.00 0.00 0.00 77 1014.0
20260510093003 1 254 9.7 14.5 0.00 0.00 0.00 77 1014.0
20260510092003 1 258 9.7 16.1 0.00 0.00 0.00 76 1014.0
20260510091004 1 251 8.0 11.3 0.00 0.00 0.00 75 1013.5
20260510090003 1 247 8.0 11.3 0.00 0.00 0.00 75 1013.5
20260510085004 1 259 8.0 11.3 0.00 0.00 0.00 74 1013.5
20260510084004 1 254 9.7 11.3 0.00 0.00 0.00 73 1013.5
20260510083003 2 254 9.7 11.3 0.00 0.00 0.00 73 1013.5
20260510080004 2 263 9.7 14.5 0.00 0.00 0.00 74 1013.4
20260510075003 2 261 9.7 12.9 0.00 0.00 0.00 76 1012.7
20260510074003 1 263 9.7 14.5 0.00 0.00 0.00 77 1012.7
20260510073004 1 275 8.0 19.3 0.00 0.00 0.00 78 1012.7
20260510071003 0 264 9.7 16.1 0.00 0.00 0.00 80 1012.7
20260510070004 0 274 9.7 14.5 0.00 0.00 0.00 79 1012.7
20260510065004 0 261 8.0 9.7 0.00 0.00 0.00 79 1012.7
20260510064004 1 270 8.0 11.3 0.00 0.00 0.00 78 1012.7
20260510063004 1 264 8.0 11.3 0.00 0.00 0.00 77 1012.7
20260510062004 1 268 8.0 9.7 0.00 0.00 0.00 76 1012.7
20260510061004 1 263 4.8 11.3 0.00 0.00 0.00 74 1012.7
20260510060004 2 286 8.0 11.3 0.00 0.00 0.00 73 1012.7
20260510055004 2 288 8.0 11.3 0.00 0.00 0.00 74 1012.7
20260510053004 0 281 6.4 14.5 0.00 0.00 0.00 77 1012.7
20260510052004 0 268 8.0 14.5 0.00 0.00 0.00 76 1012.7
20260510051004 1 266 9.7 14.5 0.00 0.00 0.00 75 1012.7
20260510050004 1 270 9.7 16.1 0.00 0.00 0.00 75 1012.7
20260510045004 1 272 8.0 12.9 0.00 0.00 0.00 73 1012.7
20260510044003 1 268 9.7 11.3 0.00 0.00 0.00 73 1012.7
20260510041004 2 266 8.0 9.7 0.00 0.00 0.00 69 1012.4
20260510035004 3 272 6.4 9.7 0.00 0.00 0.00 64 1012.4
20260510034003 4 296 4.8 11.3 0.00 0.00 0.00 62 1011.5
20260510033004 4 275 8.0 11.3 0.00 0.00 0.00 60 1011.5
20260510032003 5 282 4.8 9.7 0.00 0.00 0.00 59 1011.5
20260510031003 6 273 4.8 9.7 0.00 0.00 0.00 55 1011.5
20260510030004 6 277 4.8 8.0 0.00 0.00 0.00 53 1011.5
20260510025003 6 293 4.8 11.3 0.00 0.00 0.00 51 1011.5
20260510023003 7 296 4.8 16.1 0.00 0.00 0.00 51 1011.5
20260510022004 7 311 4.8 14.5 0.00 0.00 0.00 52 1011.5
20260510021004 7 337 8.0 16.1 0.00 0.00 0.00 50 1011.3
20260510020004 7 332 6.4 11.3 0.00 0.00 0.00 51 1009.6
20260510015004 7 328 3.2 12.9 0.00 0.00 0.00 50 1009.6
20260510014004 7 331 3.2 14.5 0.00 0.00 0.00 49 1009.6
20260510013004 7 325 6.4 19.3 0.00 0.00 0.00 47 1009.6
20260510012003 8 353 12.9 19.3 0.00 0.00 0.00 46 1009.6
20260510010004 8 333 8.0 24.1 0.00 0.00 0.00 45 1009.6
20260510004003 9 349 12.9 25.7 0.00 0.00 0.00 42 1009.6
20260510003004 9 345 16.1 27.4 0.00 0.00 0.00 42 1008.8
20260510000004 10 334 11.3 24.1 0.00 0.00 0.00 41 1008.8
20260509235003 10 308 9.7 19.3 0.00 0.00 0.00 42 1008.8
20260509234003 10 307 8.0 19.3 0.00 0.00 0.00 43 1008.8
20260509233004 10 323 9.7 25.7 0.00 0.00 0.00 41 1008.8
20260509232004 10 304 4.8 19.3 0.00 0.00 0.00 44 1007.8
20260509230003 10 312 16.1 29.0 0.00 0.00 0.00 41 1007.8
20260509225004 10 268 12.9 24.1 0.00 0.00 0.00 41 1007.8
20260509224004 10 303 16.1 25.7 0.00 0.00 0.00 40 1007.8
20260509222004 10 278 16.1 25.7 0.00 0.00 0.00 40 1007.8
20260509221004 10 339 12.9 32.2 0.00 0.00 0.00 39 1007.8
20260509220003 10 304 8.0 27.4 0.00 0.00 0.00 40 1007.8